Weather History for Boothville, LA

Change the Weather History Date:

Sunday, November 11, 2012

  Actual Average Record
Temperature  
Mean Temperature 72 °F -  
Max Temperature 79 °F - - ()
Min Temperature 66 °F - - ()
Cooling Degree Days 8    
Growing Degree Days 22 (Base 50)    
Moisture  
Dew Point 63 °F    
Average Humidity 71    
Maximum Humidity 84    
Minimum Humidity 58    
Precipitation  
Precipitation 0.00 in - - ()
Sea Level Pressure  
Sea Level Pressure 30.15 in    
Wind  
Wind Speed 11 mph (SE)    
Max Wind Speed 21 mph    
Max Gust Speed 29 mph    
Visibility 10 miles    
Events      
T = Trace of Precipitation, MM = Missing Value Source: NWS Daily Summary

Daily Weather History Graph

Daily Weather History Graph

Search for Another Location

Airport:

Trip Planner

Search our weather history database for the weather conditions in past years. The results will help you decide how hot, cold, wet, or windy it might be!

Date:

Astronomy

Nov. 11, 2012 Rise Set
Actual Time 6:18 AM CST 5:04 PM CST
Civil Twilight 5:53 AM CST 5:29 PM CST
Nautical Twilight 5:25 AM CST 5:57 PM CST
Astronomical Twilight 4:56 AM CST 6:26 PM CST
Moon 3:42 AM CST (11/11) 3:20 PM CST (11/11)
Length of Visible Light 11h 35m
Length of Day
10h 45m
Waning Crescent, 7% of the Moon is Illuminated
Nov 11
Waning Crescent
Nov 13
New
Nov 20
First Quarter
Nov 28
Full
Dec 6
Last Quarter

Hourly Weather History & Observations

Time (CST) Temp. Dew Point Humidity Pressure Visibility Wind Dir Wind Speed Gust Speed Precip Events Conditions
12:51 AM 66.0 °F 61.0 °F 84% 30.16 in 10.0 mi ESE 4.6 mph - N/A   Partly Cloudy
1:51 AM 68.0 °F 60.1 °F 76% 30.15 in 10.0 mi SE 8.1 mph - N/A   Scattered Clouds
2:51 AM 69.1 °F 60.1 °F 73% 30.15 in 10.0 mi SE 10.4 mph - N/A   Partly Cloudy
3:51 AM 69.1 °F 57.9 °F 68% 30.14 in 10.0 mi SE 9.2 mph - N/A   Partly Cloudy
4:51 AM 68.0 °F 59.0 °F 73% 30.14 in 10.0 mi ESE 6.9 mph - N/A   Clear
5:51 AM 68.0 °F 60.1 °F 76% 30.15 in 10.0 mi SE 6.9 mph - N/A   Clear
6:51 AM 69.1 °F 59.0 °F 70% 30.17 in 10.0 mi SE 8.1 mph - N/A   Clear
7:51 AM 72.0 °F 62.1 °F 71% 30.17 in 10.0 mi SE 8.1 mph - N/A   Clear
8:51 AM 75.9 °F 62.1 °F 62% 30.17 in 10.0 mi SE 10.4 mph - N/A   Clear
9:51 AM 78.1 °F 63.0 °F 60% 30.19 in 10.0 mi SE 16.1 mph 21.9 mph N/A   Clear
10:51 AM 79.0 °F 63.0 °F 58% 30.17 in 10.0 mi SE 15.0 mph 25.3 mph N/A   Clear
11:51 AM 79.0 °F 63.0 °F 58% 30.16 in 10.0 mi SSE 20.7 mph 26.5 mph N/A   Clear
12:51 PM 79.0 °F 63.0 °F 58% 30.14 in 10.0 mi SE 13.8 mph 23.0 mph N/A   Clear
1:51 PM 78.1 °F 63.0 °F 60% 30.12 in 10.0 mi SE 17.3 mph 28.8 mph N/A   Clear
2:51 PM 77.0 °F 64.9 °F 66% 30.12 in 10.0 mi SE 17.3 mph 24.2 mph N/A   Scattered Clouds
3:51 PM 75.0 °F 64.0 °F 69% 30.12 in 10.0 mi SE 15.0 mph 23.0 mph N/A   Clear
4:51 PM 73.0 °F 63.0 °F 71% 30.12 in 10.0 mi SE 15.0 mph - N/A   Clear
5:51 PM 72.0 °F 64.0 °F 76% 30.14 in 10.0 mi SE 11.5 mph - N/A   Scattered Clouds
6:51 PM 72.0 °F 64.0 °F 76% 30.13 in 10.0 mi SE 11.5 mph 21.9 mph N/A   Clear
7:51 PM 72.0 °F 64.0 °F 76% 30.14 in 10.0 mi SE 12.7 mph 20.7 mph N/A   Clear
8:51 PM 72.0 °F 64.9 °F 78% 30.15 in 10.0 mi SE 15.0 mph 21.9 mph N/A   Clear
9:51 PM 73.0 °F 64.9 °F 76% 30.14 in 10.0 mi SE 13.8 mph 24.2 mph N/A   Clear
10:51 PM 73.0 °F 66.0 °F 79% 30.13 in 10.0 mi SE 16.1 mph 25.3 mph N/A   Clear
11:51 PM 73.0 °F 66.0 °F 79% 30.12 in 10.0 mi SE 18.4 mph 27.6 mph N/A   Clear